[[{"header":{"parameterUnit":"m.s-1","parameterCategory":1,"la1":30.2991,"la2":30.254,"lo1":-89.0895,"lo2":-89.0444,"dy":0.0017,"dx":0.0017,"nx":28,"ny":28,"refTime":"2025-01-20T03:00:00:Z","depth":0,"parameterNumber":2,"parameterNumberName":"U-component_of_WINDS"},"data":[0,0,0,0,0,0,0,0,0,0,0,0,0,0,0,0,0,0,0,0,0,0,0,0,0,0,0,0,0,0,0,0,0,0,0,0,0,0,0,0,0,0,0,0,0,0,0,0,0,0,0,0,0,0,0,0,0,0,-2.2437,-2.2437,0,-2.2432,-2.2432,-2.2432,-2.2382,-2.2381,-2.238,-2.2379,-2.2374,-2.2375,-2.2376,0,0,0,0,0,0,0,0,0,0,0,0,0,-2.2407,-2.2407,-2.2437,-2.2437,-2.2437,-2.2432,-2.2432,-2.2432,-2.2383,-2.2381,-2.238,-2.2378,-2.2373,-2.2375,-2.2376,0,0,0,0,0,0,0,0,0,0,0,0,0,-2.2412,-2.2408,-2.2437,-2.2412,-2.241,-2.2432,-2.2432,-2.2431,-2.2383,-2.2381,-2.2379,-2.2377,-2.2373,-2.2374,-2.2376,-2.2422,0,0,-2.2381,-2.2381,0,0,0,0,0,0,0,0,-2.2412,-2.2414,-2.2416,-2.2414,-2.2411,-2.2406,-2.2419,-2.2428,-2.2383,-2.2393,-2.2379,-2.2377,-2.2386,-2.2386,-2.2389,-2.2422,-2.2421,-2.2381,-2.2382,-2.2382,-2.2383,0,0,0,0,0,0,0,-2.2412,-2.2414,-2.2435,-2.2416,-2.2413,-2.2401,-2.24,-2.242,-2.24,-2.2392,-2.2389,-2.2388,-2.2384,-2.2388,-2.2389,-2.2421,-2.2381,-2.2382,-2.2383,-2.2384,-2.2491,-2.2493,0,0,0,0,0,0,-2.2415,-2.2414,-2.2435,-2.2435,-2.2407,-2.2403,-2.2402,-2.2409,-2.24,-2.2396,-2.239,-2.2386,-2.2386,-2.2387,-2.2388,-2.2442,-2.2382,-2.2384,-2.2385,-2.249,-2.2492,-2.2494,0,0,0,0,0,0,-2.2414,-2.2417,-2.2436,-2.2423,-2.2425,-2.2406,-2.2415,-2.241,-2.2414,-2.2398,-2.2394,-2.2397,-2.2385,-2.2386,-2.2414,-2.2441,-2.2384,-2.2386,-2.2487,-2.249,-2.2493,-2.2549,0,0,0,0,0,0,-2.2414,-2.2417,-2.2435,-2.2424,-2.2426,-2.2461,-2.2416,-2.2412,-2.2416,-2.2411,-2.2404,-2.2401,-2.2383,-2.2412,-2.2415,-2.2442,-2.2387,-2.2485,-2.2489,-2.2492,-2.2545,-2.2554,-2.2561,0,0,0,0,0,-2.2413,-2.2451,-2.2436,-2.2439,-2.2447,-2.2463,-2.2464,-2.2443,-2.2419,-2.2436,-2.2426,-2.2401,-2.2437,-2.2415,-2.2419,-2.2446,-2.2483,-2.2487,-2.2492,-2.2541,-2.2552,-2.2561,0,0,0,0,0,0,-2.2465,-2.2449,-2.2432,-2.2468,-2.2467,-2.2455,-2.2476,-2.2455,-2.2461,-2.2456,-2.243,-2.2429,-2.2461,-2.2456,-2.2432,-2.249,-2.2456,-2.2461,-2.2492,-2.2502,-2.251,-2.2511,-2.2388,0,0,0,0,0,-2.2481,-2.2496,-2.248,-2.2513,-2.2514,-2.2495,-2.2501,-2.2485,-2.2483,-2.2483,-2.2475,-2.2474,-2.2485,-2.2494,-2.2503,-2.2544,-2.2542,-2.2564,-2.2573,-2.2579,-2.2585,-2.2606,-2.2616,-2.2509,-2.2509,-2.2508,0,0,-2.2514,-2.2507,-2.2517,-2.2524,-2.2521,-2.2537,-2.2495,-2.2514,-2.2525,-2.2486,-2.2512,-2.2506,-2.2503,-2.2538,-2.2553,-2.2535,-2.2614,-2.2585,-2.2591,-2.2592,-2.2612,-2.2622,-2.2631,-2.2512,-2.2511,-2.2511,0,0,-2.2582,-2.2578,-2.2605,-2.2603,-2.26,-2.2587,-2.2593,-2.2584,-2.2578,-2.2604,-2.2575,-2.2588,-2.2608,-2.2607,-2.261,-2.2677,-2.2655,-2.2681,-2.2724,-2.2746,-2.2754,-2.2762,-2.2786,-2.2795,-2.2686,-2.2686,-2.2686,0,-2.2623,-2.2646,-2.2621,-2.2642,-2.2646,-2.261,-2.2638,-2.2637,-2.2638,-2.2641,-2.2621,-2.2645,-2.2641,-2.2675,-2.2692,-2.2695,-2.2702,-2.2682,-2.2755,-2.2762,-2.2769,-2.2792,-2.2801,-2.2689,-2.2689,-2.2689,-2.2688,0,-2.2697,-2.2713,-2.2735,-2.2736,-2.2742,-2.2766,-2.2746,-2.2755,-2.2738,-2.2727,-2.2754,-2.2747,-2.2755,-2.2762,-2.2745,-2.2794,-2.2783,-2.2759,-2.2724,-2.2783,-2.2804,-2.2813,-2.2694,-2.2693,-2.2692,-2.2691,0,0,-2.2799,-2.2785,-2.2794,-2.2794,-2.2788,-2.28,-2.2822,-2.2829,-2.2838,-2.2839,-2.2857,-2.2874,-2.2852,-2.2855,-2.2839,-2.2857,-2.2912,-2.2831,-2.2831,-2.2847,-2.2965,-2.2984,-2.2994,-2.2896,-2.2898,-2.2899,-2.2966,0,-2.2865,-2.2902,-2.2881,-2.2921,-2.2936,-2.2902,-2.2921,-2.292,-2.291,-2.2921,-2.2911,-2.2924,-2.2893,-2.2895,-2.2912,-2.2902,-2.2935,-2.2896,-2.2914,-2.2915,-2.2917,-2.3005,-2.3025,-2.3088,-2.2974,-2.2975,-2.2976,0,-2.2947,-2.2951,-2.2993,-2.2984,-2.2989,-2.3007,-2.3012,-2.3022,-2.302,-2.3012,-2.3015,-2.2993,-2.3015,-2.298,-2.3009,-2.2983,-2.2989,-2.2985,-2.2987,-2.2988,-2.295,-2.301,-2.3107,-2.3117,-2.2989,-2.2988,-2.2987,0,-2.3018,-2.3034,-2.3061,-2.3062,-2.3052,-2.3065,-2.3061,-2.3057,-2.3062,-2.3067,-2.307,-2.3077,-2.3081,-2.3087,-2.3068,-2.3044,-2.31,-2.3063,-2.3095,-2.3095,-2.3109,-2.3109,-2.3209,-2.3111,-2.3111,-2.3111,-2.3111,0,-2.3094,-2.3121,-2.3093,-2.311,-2.3139,-2.3114,-2.3144,-2.3137,-2.3133,-2.3148,-2.3119,-2.3134,-2.3108,-2.312,-2.3105,-2.3132,-2.3134,-2.3129,-2.3125,-2.3132,-2.3133,-2.3136,-2.3131,-2.3113,-2.3113,-2.3112,-2.3112,0,-2.3179,-2.3161,-2.3188,-2.3176,-2.3174,-2.3196,-2.3185,-2.3201,-2.3189,-2.3208,-2.3211,-2.3193,-2.3206,-2.3188,-2.3199,-2.3189,-2.3226,-2.3215,-2.3227,-2.3224,-2.3257,-2.3254,-2.3364,-2.3377,-2.327,-2.3271,-2.3272,0,-2.3229,-2.3249,-2.3239,-2.3247,-2.3245,-2.3258,-2.3263,-2.3239,-2.3247,-2.3245,-2.3261,-2.3271,-2.3278,-2.33,-2.3288,-2.3296,-2.3286,-2.3324,-2.3287,-2.3294,-2.3287,-2.3287,-2.3289,-2.3331,-2.3333,-2.3334,-2.3335,0,-2.3321,-2.3311,-2.332,-2.3326,-2.3333,-2.3337,-2.3338,-2.3346,-2.3321,-2.3331,-2.3343,-2.3349,-2.336,-2.3371,-2.3376,-2.3372,-2.335,-2.3346,-2.3354,-2.3362,-2.3369,-2.3366,-2.3248,-2.3344,-2.3343,-2.3342,-2.3342,-2.3341,-2.3391,-2.3407,-2.3402,-2.3413,-2.3412,-2.3414,-2.3427,-2.3417,-2.3427,-2.3434,-2.3419,-2.3436,-2.3432,-2.3437,-2.3436,-2.3448,-2.3432,-2.3443,-2.3446,-2.345,-2.3455,-2.3366,-2.3449,-2.3449,-2.3449,-2.3448,-2.3448,0,-2.3481,-2.3477,-2.3487,-2.349,-2.3498,-2.3475,-2.3476,-2.3485,-2.3499,-2.3498,-2.3505,-2.352,-2.353,-2.3519,-2.3527,-2.354,-2.353,-2.3543,-2.3542,-2.3542,-2.3469,-2.3462,-2.3551,-2.3551,-2.3551,-2.3551,-2.3551,-2.3551,-2.353,-2.3556,-2.3546,-2.3571,-2.3566,-2.3582,-2.3584,-2.3586,-2.3584,-2.3602,-2.361,-2.3603,-2.3597,-2.3605,-2.3613,-2.361,-2.3615,-2.3632,-2.3625,-2.3557,-2.3547,-2.3537,-2.353,-2.3633,-2.3633,-2.3696,-2.3697,-2.3697]},{"header":{"parameterUnit":"m.s-1","parameterCategory":1,"la1":30.2991,"la2":30.254,"lo1":-89.0895,"lo2":-89.0444,"dy":0.0017,"dx":0.0017,"nx":28,"ny":28,"refTime":"2025-01-20T03:00:00:Z","depth":0,"parameterNumber":3,"parameterNumberName":"V-component_of_WINDS"},"data":[0,0,0,0,0,0,0,0,0,0,0,0,0,0,0,0,0,0,0,0,0,0,0,0,0,0,0,0,0,0,0,0,0,0,0,0,0,0,0,0,0,0,0,0,0,0,0,0,0,0,0,0,0,0,0,0,0,0,-5.1055,-5.1056,0,-5.1103,-5.1104,-5.1104,-5.1071,-5.1069,-5.1068,-5.1066,-5.1112,-5.1114,-5.1117,0,0,0,0,0,0,0,0,0,0,0,0,0,-5.093,-5.0933,-5.1055,-5.1056,-5.1056,-5.1103,-5.1104,-5.1104,-5.1071,-5.1069,-5.1067,-5.1065,-5.1111,-5.1114,-5.1117,0,0,0,0,0,0,0,0,0,0,0,0,0,-5.0982,-5.0934,-5.1055,-5.1045,-5.1045,-5.1103,-5.1104,-5.1105,-5.1071,-5.1069,-5.1067,-5.1065,-5.111,-5.1114,-5.1117,-5.1187,0,0,-5.1129,-5.1131,0,0,0,0,0,0,0,0,-5.0979,-5.0987,-5.1046,-5.1046,-5.1046,-5.1079,-5.1076,-5.1132,-5.1072,-5.1061,-5.1066,-5.1063,-5.1102,-5.1107,-5.112,-5.1189,-5.1191,-5.113,-5.1132,-5.1134,-5.1135,0,0,0,0,0,0,0,-5.0976,-5.0984,-5.1074,-5.1047,-5.1047,-5.1037,-5.1042,-5.1087,-5.1093,-5.1062,-5.1059,-5.1066,-5.1102,-5.1117,-5.1121,-5.1191,-5.113,-5.1133,-5.1136,-5.1137,-5.1319,-5.1322,0,0,0,0,0,0,-5.0974,-5.0982,-5.1072,-5.1075,-5.1006,-5.1041,-5.1047,-5.107,-5.1093,-5.1094,-5.1068,-5.1064,-5.1111,-5.1117,-5.1123,-5.1206,-5.1134,-5.1137,-5.114,-5.1317,-5.132,-5.1323,0,0,0,0,0,0,-5.0971,-5.0982,-5.107,-5.1028,-5.1039,-5.1046,-5.1073,-5.1072,-5.1088,-5.1098,-5.1098,-5.1082,-5.111,-5.1117,-5.1171,-5.1207,-5.1139,-5.1143,-5.1314,-5.1318,-5.1321,-5.1373,0,0,0,0,0,0,-5.0968,-5.0981,-5.1008,-5.1029,-5.1041,-5.112,-5.1075,-5.1075,-5.1095,-5.1091,-5.1111,-5.1113,-5.1108,-5.1166,-5.1175,-5.1211,-5.1146,-5.1311,-5.1316,-5.132,-5.1368,-5.1378,-5.1387,0,0,0,0,0,-5.0963,-5.102,-5.101,-5.1021,-5.1075,-5.1122,-5.1128,-5.1124,-5.1098,-5.1125,-5.1131,-5.1112,-5.1202,-5.1172,-5.1182,-5.122,-5.1309,-5.1314,-5.132,-5.1364,-5.1376,-5.1387,0,0,0,0,0,0,-5.1002,-5.1023,-5.1012,-5.1077,-5.1098,-5.1116,-5.115,-5.1137,-5.1164,-5.1159,-5.1151,-5.1156,-5.1213,-5.1221,-5.1188,-5.1288,-5.1251,-5.1259,-5.1281,-5.1293,-5.1302,-5.1299,-5.1149,0,0,0,0,0,-5.1019,-5.1056,-5.1071,-5.1127,-5.1138,-5.1143,-5.1162,-5.1157,-5.1178,-5.1186,-5.1197,-5.1217,-5.125,-5.1271,-5.1302,-5.1369,-5.1373,-5.14,-5.1409,-5.1417,-5.1424,-5.1461,-5.1473,-5.1341,-5.1341,-5.1341,0,0,-5.1052,-5.1068,-5.1092,-5.1135,-5.1151,-5.1189,-5.115,-5.1192,-5.122,-5.1192,-5.1245,-5.1253,-5.1275,-5.1336,-5.1364,-5.1345,-5.1461,-5.1424,-5.143,-5.1433,-5.1468,-5.1481,-5.1492,-5.1345,-5.1344,-5.1344,0,0,-5.1134,-5.1149,-5.1199,-5.1216,-5.124,-5.1243,-5.1255,-5.1275,-5.128,-5.1333,-5.1313,-5.1345,-5.1402,-5.1419,-5.1434,-5.1523,-5.1506,-5.1533,-5.1581,-5.1617,-5.1628,-5.1637,-5.1669,-5.1681,-5.154,-5.154,-5.154,0,-5.1173,-5.1231,-5.1225,-5.1269,-5.1289,-5.1267,-5.1317,-5.1332,-5.1365,-5.1379,-5.1358,-5.1429,-5.1442,-5.1508,-5.1529,-5.1542,-5.1555,-5.1531,-5.1627,-5.1636,-5.1645,-5.1675,-5.1688,-5.1543,-5.1543,-5.1542,-5.1542,0,-5.1277,-5.1318,-5.1354,-5.1389,-5.1412,-5.1458,-5.1459,-5.1483,-5.1476,-5.148,-5.1534,-5.1549,-5.1583,-5.1598,-5.159,-5.1662,-5.165,-5.1628,-5.159,-5.166,-5.1689,-5.1701,-5.1547,-5.1546,-5.1545,-5.1545,0,0,-5.1385,-5.1417,-5.1431,-5.1447,-5.1472,-5.1503,-5.1548,-5.1582,-5.1603,-5.1626,-5.1664,-5.1712,-5.1693,-5.1711,-5.1704,-5.1736,-5.1806,-5.171,-5.171,-5.1728,-5.1888,-5.1905,-5.1919,-5.1795,-5.1797,-5.1799,-5.1886,0,-5.1469,-5.155,-5.1547,-5.1621,-5.1659,-5.1638,-5.1677,-5.1697,-5.1702,-5.1734,-5.1738,-5.1774,-5.1744,-5.1755,-5.1785,-5.1792,-5.1838,-5.1785,-5.183,-5.1831,-5.1827,-5.1934,-5.1953,-5.2035,-5.1898,-5.1899,-5.1901,0,-5.1578,-5.1608,-5.1687,-5.1708,-5.1724,-5.1759,-5.1791,-5.1821,-5.1843,-5.1844,-5.1865,-5.1853,-5.1898,-5.1858,-5.192,-5.1884,-5.1901,-5.1907,-5.191,-5.1915,-5.1871,-5.1943,-5.206,-5.2073,-5.1918,-5.1917,-5.1916,0,-5.1651,-5.171,-5.1765,-5.1779,-5.1805,-5.183,-5.1842,-5.1861,-5.1882,-5.1909,-5.1923,-5.1954,-5.1971,-5.1995,-5.1992,-5.1964,-5.2055,-5.2015,-5.2058,-5.2058,-5.2079,-5.2078,-5.2202,-5.2088,-5.2088,-5.2088,-5.2088,0,-5.1746,-5.1796,-5.1798,-5.1832,-5.1887,-5.1882,-5.1935,-5.1944,-5.1962,-5.1996,-5.1979,-5.2012,-5.2006,-5.2038,-5.2036,-5.2088,-5.2095,-5.2097,-5.2096,-5.21,-5.21,-5.2112,-5.2107,-5.2091,-5.209,-5.209,-5.2089,0,-5.1837,-5.1841,-5.19,-5.192,-5.1926,-5.1966,-5.1982,-5.2014,-5.2018,-5.2062,-5.2072,-5.2077,-5.2114,-5.2114,-5.2155,-5.2154,-5.2218,-5.221,-5.2212,-5.221,-5.2253,-5.225,-5.2391,-5.241,-5.2283,-5.2284,-5.2285,0,-5.1898,-5.1936,-5.1961,-5.1984,-5.1998,-5.2034,-5.2057,-5.2052,-5.2076,-5.2104,-5.2132,-5.2168,-5.2197,-5.2257,-5.2264,-5.2296,-5.2289,-5.2336,-5.2294,-5.2296,-5.2291,-5.229,-5.2294,-5.2345,-5.2347,-5.2348,-5.2349,0,-5.2007,-5.2007,-5.204,-5.2075,-5.2102,-5.2128,-5.2152,-5.2171,-5.217,-5.2197,-5.2236,-5.2258,-5.2302,-5.2338,-5.2369,-5.2379,-5.2364,-5.2362,-5.2374,-5.2378,-5.2378,-5.238,-5.2236,-5.2359,-5.2358,-5.2357,-5.2357,-5.2356,-5.2086,-5.2119,-5.2142,-5.218,-5.2198,-5.2221,-5.2253,-5.2261,-5.2294,-5.233,-5.2325,-5.2368,-5.2388,-5.2429,-5.2442,-5.2475,-5.2459,-5.2475,-5.248,-5.2484,-5.249,-5.2372,-5.2481,-5.248,-5.248,-5.248,-5.248,0,-5.2195,-5.2209,-5.2244,-5.2279,-5.2309,-5.2293,-5.2319,-5.2344,-5.2383,-5.2404,-5.2433,-5.2478,-5.2513,-5.2523,-5.2556,-5.2581,-5.2575,-5.259,-5.2589,-5.2592,-5.2502,-5.2489,-5.2594,-5.2594,-5.2594,-5.2594,-5.2594,-5.2594,-5.2255,-5.2311,-5.2314,-5.2378,-5.2391,-5.2436,-5.2452,-5.2473,-5.249,-5.2541,-5.2571,-5.2577,-5.2594,-5.2628,-5.2659,-5.2661,-5.2675,-5.2693,-5.2692,-5.2609,-5.2598,-5.2587,-5.2575,-5.2696,-5.2696,-5.2779,-5.278,-5.278]}]]